This demonstration page uses our WeatherBlox Daily Observations layout. Learn more.

Left ArrowRight Arrow

38.80484, -77.04692

Hourly Observations for August 13, 2021

Temp ( °F °C ) Dew Point ( °F °C ) Humidity (%) Winds ( mph kmh ) Pressure ( in mb ) Visibility ( mi km ) Precip ( " mm )
12:52 am 00:52 Mostly Cloudy 85 29.4 76 24.4 75 75 SW 5 7 30.04 1017 10 16 N/A
1:48 am 01:48 Mostly Cloudy with Nearby Thunderstorms 84 29 73 23 70 70 N N/A 30.04 1017 10 16 N/A
1:52 am 01:52 Mostly Cloudy with Thunderstorms 85 29.4 75 23.9 72 72 SSE 7 11 30.04 1017 10 16 N/A
2:33 am 02:33 Mostly Cloudy 84 28.9 76 24.4 77 77 S 6 9 30.05 1018 10 16 N/A
2:52 am 02:52 Mostly Cloudy 83 28.3 76 24.4 79 79 S 5 7 30.03 1017 10 16 N/A
3:52 am 03:52 Mostly Cloudy 82 27.8 76 24.4 82 82 SSW 8 13 30.04 1017 10 16 N/A
4:52 am 04:52 Mostly Cloudy 82 27.8 75 23.9 79 79 WNW 6 9 30.03 1017 10 16 N/A
5:52 am 05:52 Mostly Cloudy 81 27.2 71 21.7 72 72 NNW 5 7 30.04 1017 10 16 N/A
6:52 am 06:52 Mostly Cloudy 81 27.2 68 20 65 65 NNW 5 7 30.05 1018 10 16 N/A
7:52 am 07:52 Mostly Cloudy 84 28.9 68 20 59 59 N 3 6 30.06 1018 10 16 N/A
8:52 am 08:52 Mostly Cloudy 88 31.1 68 20 52 52 N 3 6 30.08 1019 10 16 N/A
9:52 am 09:52 Mostly Cloudy 88 31.1 68 20 52 52 NNW 7 11 30.10 1019 10 16 N/A
10:52 am 10:52 Mostly Cloudy 91 32.8 66 18.9 44 44 N 3 6 30.11 1020 10 16 N/A
11:52 am 11:52 Mostly Cloudy 91 32.8 70 21.1 50 50 N N/A 30.10 1019 10 16 N/A
12:52 pm 12:52 Mostly Cloudy 90 32.2 70 21.1 52 52 S 8 13 30.09 1019 10 16 N/A
1:52 pm 13:52 Mostly Cloudy 93 33.9 71 21.7 49 49 S 7 11 30.07 1018 10 16 N/A
2:52 pm 14:52 Mostly Cloudy 95 35 71 21.7 46 46 SSW 7 11 30.04 1017 10 16 N/A
3:52 pm 15:52 Partly Cloudy 94 34.4 72 22.2 49 49 S 9 15 30.02 1017 10 16 N/A
4:13 pm 16:13 Partly Cloudy with Thunderstorms 95 35 75 23.9 53 53 S 10 17 30.01 1016 10 16 N/A
4:52 pm 16:52 Partly Cloudy 96 35.6 69 20.6 41 41 SW 10 17 30.01 1016 10 16 N/A
5:24 pm 17:24 Mostly Cloudy with Nearby Thunderstorms 84 28.9 68 20 59 59 NNW 21 33 30.05 1018 10 16 N/A
5:52 pm 17:52 Mostly Cloudy with Nearby Thunderstorms 84 28.9 67 19.4 57 57 N 8 13 30.05 1018 10 16 N/A
6:21 pm 18:21 Cloudy with Nearby Thunderstorms 84 28.9 66 18.9 55 55 W 18 30 30.06 1018 10 16 N/A
6:37 pm 18:37 Cloudy with Thunderstorms 80 26.7 70 21.1 71 71 SW 7 11 30.07 1018 10 16 0.00 0.00
6:52 pm 18:52 Cloudy with Nearby Thunderstorms 79 26.1 70 21.1 74 74 SE 6 9 30.07 1018 10 16 0.01 0.25
7:52 pm 19:52 Cloudy with Nearby Thunderstorms 77 25 72 22.2 85 85 S 16 26 30.10 1019 10 16 0.03 0.76
8:52 pm 20:52 Cloudy with Nearby Thunderstorms 75 23.9 71 21.7 88 88 SSW 7 11 30.09 1019 10 16 0.04 1.02
9:11 pm 21:11 Mostly Cloudy with Light Rain 75 23.9 70 21.1 84 84 WSW 5 7 30.09 1019 10 16 0.01 0.25
9:52 pm 21:52 Mostly Cloudy 75 23.9 70 21.1 84 84 SSW 7 11 30.10 1019 10 16 0.01 0.25
10:52 pm 22:52 Cloudy 76 24.4 69 20.6 79 79 W 8 13 30.08 1019 10 16 N/A
11:52 pm 23:52 Cloudy 75 23.9 70 21.1 84 84 SSW 3 6 30.08 1019 10 16 N/A

Powered by AerisWeather